Wetbulb
52.05 50.42 50.97 52.08 51.56 51.59 49.20 49.05 48.55 47.79 47.27 46.87 47.00 45.89 44.71 43.59 43.40 42.83 41.73 41.00 40.58 40.35
50.09 51.66 51.44 51.25 51.02 48.73 47.73 48.82 46.66 46.37 45.08 44.49 44.28 43.80 42.61 41.39 40.78 40.59 39.90 39.43 38.99 38.23
51.70 51.84 50.70 49.47 47.03 45.90 45.07 45.17 44.92 44.61 43.91 43.57 43.05 42.31 41.07 40.27 40.57 39.44 39.07 39.92 38.52 37.59
49.62 49.24 48.21 45.87 45.31 44.70 44.25 44.16 43.84 43.60 42.86 42.30 41.63 40.82 39.31 38.88 39.22 38.56 37.95 38.12 38.17 38.14
46.92 45.30 44.31 43.74 43.58 44.07 43.16 43.40 42.76 42.32 41.58 40.93 40.64 39.88 38.91 38.55 38.72 37.93 37.34 37.59 37.61 37.60
43.89 43.27 42.47 42.25 42.38 42.38 41.55 41.13 41.30 41.15 40.28 40.35 40.41 39.77 39.39 38.97 38.52 37.98 37.68 37.52 37.08 37.14
42.33 42.23 41.79 41.62 41.42 41.28 40.81 39.74 39.35 39.52 40.12 40.60 40.27 40.32 39.94 39.44 38.10 37.37 38.07 38.85 39.10 38.66
41.95 41.75 41.38 40.84 40.77 40.73 40.16 39.91 39.84 39.68 39.91 39.97 40.22 41.46 38.64 38.81 37.59 36.99 37.39 38.71 38.86 39.13
41.99 41.66 40.93 40.70 40.50 39.98 39.74 39.29 39.41 39.11 39.21 38.54 41.68 45.72 46.15 44.29 37.98 39.75 38.39 35.98 37.07 37.60
41.35 40.81 40.50 40.56 39.97 39.15 38.49 38.54 38.11 37.95 38.27 37.80 38.02 45.19 45.56 45.60 41.23 36.63 35.16 35.80 36.60 37.60
40.66 40.25 40.05 39.34 38.57 37.97 37.83 37.41 37.19 37.41 37.79 37.09 38.93 44.69 45.09 44.32 36.31 35.64 36.61 38.10 37.65 37.17
40.16 39.18 39.05 38.43 37.78 37.81 37.22 36.84 36.87 37.59 36.77 35.98 35.91 43.19 42.95 41.35 37.58 38.14 38.15 39.00 37.98 37.59
40.02 39.14 38.39 37.74 37.35 37.60 37.12 37.48 38.02 37.04 36.48 39.76 34.75 40.85 42.25 40.74 38.25 37.13 36.64 37.92 38.43 41.85
39.63 38.76 38.28 37.29 36.98 36.31 36.30 36.42 35.37 36.43 35.09 34.06 35.07 34.50 41.13 41.83 38.74 37.52 36.31 36.50 37.09 38.11
MSLP
1014.99 1015.54 1015.98 1016.32 1016.83 1017.44 1018.04 1018.64 1019.05 1019.47 1019.75 1020.17 1020.57 1020.88 1021.16 1021.50 1021.63 1021.76 1021.95 1022.11 1022.23 1022.36
1015.17 1015.58 1016.06 1016.54 1017.09 1017.81 1018.47 1018.96 1019.31 1019.65 1020.09 1020.45 1020.71 1020.91 1021.13 1021.49 1021.65 1021.83 1021.97 1022.04 1022.11 1022.23
1015.61 1015.99 1016.71 1017.05 1017.71 1018.38 1018.99 1019.34 1019.81 1020.13 1020.36 1020.61 1020.74 1020.92 1021.16 1021.45 1021.59 1021.73 1021.81 1021.84 1021.92 1022.00
1015.99 1016.67 1017.06 1017.67 1018.32 1018.89 1019.27 1019.62 1019.95 1020.26 1020.54 1020.77 1020.90 1020.99 1021.22 1021.40 1021.52 1021.62 1021.68 1021.66 1021.65 1021.71
1016.65 1017.09 1017.70 1018.27 1018.68 1019.03 1019.36 1019.64 1020.00 1020.31 1020.60 1020.80 1020.92 1021.01 1021.16 1021.32 1021.40 1021.46 1021.50 1021.47 1021.47 1021.47
1017.45 1017.84 1018.24 1018.56 1018.87 1019.18 1019.49 1019.75 1019.94 1020.27 1020.53 1020.71 1020.83 1020.97 1021.09 1021.19 1021.24 1021.27 1021.29 1021.25 1021.22 1021.14
1018.11 1018.37 1018.67 1018.93 1019.20 1019.45 1019.67 1019.85 1020.02 1020.20 1020.38 1020.53 1020.66 1020.78 1020.84 1020.89 1020.95 1021.03 1021.07 1021.08 1020.98 1020.82
1018.51 1018.80 1019.09 1019.36 1019.55 1019.68 1019.80 1019.96 1020.11 1020.21 1020.28 1020.36 1020.41 1020.45 1020.47 1020.55 1020.68 1020.83 1020.90 1020.81 1020.72 1020.50
1018.90 1019.18 1019.43 1019.56 1019.68 1019.83 1020.02 1020.12 1020.12 1020.12 1020.14 1020.18 1020.12 1020.09 1020.08 1020.15 1020.32 1020.42 1020.50 1020.47 1020.16 1019.90
1019.10 1019.35 1019.54 1019.70 1019.88 1020.03 1020.10 1020.02 1020.04 1020.05 1020.05 1020.09 1020.00 1019.94 1019.88 1019.80 1019.79 1019.98 1020.02 1019.93 1019.73 1019.39
1019.26 1019.60 1019.71 1019.89 1020.08 1020.15 1020.16 1020.19 1020.19 1020.15 1020.08 1020.06 1019.96 1019.79 1019.55 1019.38 1019.43 1019.50 1019.47 1019.38 1019.19 1018.87
1019.46 1019.79 1019.93 1020.18 1020.27 1020.26 1020.34 1020.39 1020.38 1020.23 1020.10 1019.98 1019.77 1019.50 1019.23 1019.06 1019.05 1019.14 1018.99 1018.82 1018.59 1018.22
1019.61 1019.82 1020.09 1020.18 1020.34 1020.33 1020.33 1020.31 1020.20 1020.13 1019.95 1019.70 1019.41 1019.21 1018.99 1019.05 1018.81 1018.83 1018.70 1018.32 1017.92 1017.47
1019.69 1019.85 1019.98 1020.12 1020.19 1020.27 1020.24 1020.16 1020.11 1019.89 1019.67 1019.47 1019.33 1019.19 1018.99 1018.79 1018.63 1018.42 1018.00 1017.65 1017.26 1016.89
Wind_Speed
7 5 4 5 4 4 3 4 6 6 6 6 5 3 3 1 0 2 2 4 3 2
6 6 6 7 7 6 6 5 7 6 5 5 4 3 2 1 2 3 3 4 3 2
7 7 6 7 7 8 7 6 6 4 4 3 1 2 1 2 3 3 4 3 4 3
7 6 7 7 7 7 6 6 4 4 2 1 1 2 2 4 5 4 4 4 5 6
7 8 8 6 6 6 5 5 2 3 3 2 3 3 3 4 5 5 6 6 6 6
6 6 6 7 6 5 2 1 1 4 4 4 3 3 4 4 5 5 6 6 6 7
7 7 6 6 4 3 2 1 2 2 1 1 3 4 5 5 5 5 5 6 6 7
7 6 5 2 1 1 2 3 3 3 4 4 4 3 4 3 4 5 6 7 7 9
5 5 2 2 3 3 4 4 4 5 4 4 3 10 15 10 4 6 6 7 8 6
4 2 2 3 3 3 4 4 5 4 4 5 5 12 16 16 7 4 5 7 8 8
3 3 3 4 4 5 4 4 4 5 5 5 4 15 17 17 5 5 7 10 11 9
5 4 4 4 4 4 4 4 4 4 5 6 6 14 17 15 3 5 9 9 10 11
4 3 3 3 4 3 3 4 4 5 6 9 7 11 14 14 6 8 7 8 11 17
3 3 3 2 2 3 4 5 5 6 5 6 5 7 17 19 9 7 8 7 7 6
Wind_Direction
126 132 146 148 130 142 122 110 111 87 81 101 118 115 107 97 283 262 287 292 287 268
95 88 92 84 77 83 94 102 84 97 87 81 85 93 86 61 322 332 309 292 288 270
108 91 91 87 88 89 87 86 101 96 87 95 38 339 329 253 254 252 264 251 263 269
95 109 96 93 95 98 105 107 101 109 117 318 301 311 326 302 293 293 288 289 272 268
86 89 95 111 112 118 121 115 127 76 37 346 316 310 309 303 306 294 292 287 293 283
92 94 93 91 81 92 95 128 206 164 201 233 259 305 301 293 293 295 292 288 285 279
91 78 71 60 55 42 10 341 315 295 301 352 320 292 279 273 279 300 310 309 302 293
79 68 75 100 200 315 359 351 328 321 304 273 260 255 278 284 294 306 298 287 290 290
71 79 57 13 355 353 336 317 291 275 278 304 289 301 302 305 266 272 280 286 288 281
90 73 24 352 333 310 284 270 280 310 326 308 303 304 299 298 296 277 276 274 274 284
60 32 4 13 358 343 346 343 333 324 316 319 308 308 301 304 305 286 274 292 291 278
52 30 22 357 333 331 341 337 315 305 314 308 291 300 302 302 305 305 291 278 283 278
31 20 327 355 349 320 322 299 310 309 290 286 297 309 327 324 309 304 285 273 272 283
354 355 1 350 296 300 303 309 302 286 296 298 327 338 326 315 310 289 284 284 288 280